Home   Weather   Zürich   Past weeks

Flag for Switzerland Past Weather in Zürich, Zurich, Switzerland — Yesterday and Last 2 Weeks

Now
18 °F

Cold.


Feels Like: 18 °F
Forecast: 17 / 24 °F
Wind: 2 mph from East

Location: Zuerich-Fluntern

Current Time: Jan 24, 2017 at 2:25:24 am

Latest Report: Jan 24, 2017 at 1:00 am


Visibility: N/A

Pressure: 30.34 "Hg

Humidity: 92%

Dew Point: 16 °F

Location of ZürichLocation

Past Weather in Zürich — Graph

°F

Zürich Temperature Yesterday

Maximum temperature yesterday: 24 °F (at 3:00 pm)
Minimum temperature yesterday: 18 °F (at 11:00 pm)
Average temperature yesterday: 21 °F

High & Low Weather Summary for the Past Weeks

 TemperatureHumidityPressure
High41 °F (Jan 12, 2:00 pm)99% (Jan 10, 6:00 pm)30.55 "Hg (Jan 10, 6:00 pm)
Low17 °F (Jan 24, 12:00 am)65% (Jan 13, 12:00 pm)29.55 "Hg (Jan 13, 12:00 am)
Average26 °F86%30.24 "Hg
* Reported Jan 9 1:00 am — Jan 24 1:00 am, Zürich, Weather by CustomWeather, © 2017

Note: Actual official high and low records may vary slightly from our data, if they occured in-between our weather recording intervals... More about our weather records

Advertising

Zürich Weather History for the Previous 24 Hours

Scroll right to see more
 ConditionsComfort  
Time TempWeatherWind HumidityBarometerVisibility
1:00 am
Tue, Jan 24
18 °FCold.2 mph92%30.34 "HgN/A
12:00 am17 °FCold.3 mph96%30.34 "HgN/A
11:00 pm
Mon, Jan 23
18 °FCold.6 mph93%30.33 "HgN/A
10:00 pm18 °FCold.2 mph95%30.33 "HgN/A
9:00 pm19 °FCold.3 mph94%30.33 "HgN/A
8:00 pm20 °FCold.3 mph95%30.33 "HgN/A
7:00 pm20 °FOvercast.3 mph92%30.32 "HgN/A
6:00 pm21 °FCold.3 mph93%30.31 "HgN/A
5:00 pm22 °FCold.2 mph91%30.29 "HgN/A
4:00 pm23 °FCold.2 mph86%30.28 "HgN/A
3:00 pm24 °FCold.1 mph86%30.28 "HgN/A
2:00 pm23 °FCold.2 mph89%30.28 "HgN/A
1:00 pm22 °FOvercast.1 mph90%30.31 "HgN/A
12:00 pm22 °FCold.1 mph92%30.32 "HgN/A
11:00 am21 °FCold.1 mph95%30.33 "HgN/A
10:00 am21 °FCold.2 mph94%30.33 "HgN/A
9:00 am20 °FCold.2 mph94%30.33 "HgN/A
8:00 am20 °FCold.1 mph94%30.32 "HgN/A
7:00 am21 °FCold.2 mph94%30.31 "HgN/A
6:00 am20 °FCold.1 mph93%30.31 "HgN/A
5:00 am21 °FCold.1 mph96%30.31 "HgN/A
4:00 am21 °FCold.1 mph96%30.32 "HgN/A
3:00 am20 °FCold.1 mph97%30.33 "HgN/A
2:00 am21 °FCold.No wind95%30.33 "HgN/A
Weather by CustomWeather, © 2017

See weather overviewHow to use our weather pages